NOAA 16 DEB, 41079

Orbit data source: Space-Track

NOAA 16 DEB, 41079 is space debris in SSO originally from a launch on Thu, 21 Sep 2000 UTC launched from the Air Force Western Test Range (AFWTR). Debris objects in space refer to the collection of defunct objects orbiting the Earth. Examples of debris include non-operational satellites, rocket bodies, and fragments generated from explosions, collisions, or faulty payload assembly.

Loading next visibility...
Identifier
41079, 2000-055AN
Orbit
SSO
Country
Flag of USUS
Related business
Manufacturer
Unknown
Mission
Spacecraft
Bus & Motor
Unknown
Mass
Unknown
Launch date (UTC)
2000-09-21 (25 years ago)
Launch vehicle
Unknown
Launch site
Air Force Western Test Range (AFWTR)
Object type
Payload
Rocket body
Debris
Shape & HBR
Unknown
Radar Cross Section
Small (<0.1 m²)

Expand to show TLE details & history
Last TLE update: 19 hours ago

TLE from 19 hours ago
0 NOAA 16 DEB
1 41079U 00055AN  25260.81750000  .00000540  00000-0  48399-3 0  9992
2 41079  99.0817 206.5706 0144852  38.6356 322.5057 13.83832419494786
Epoch: 2025-09-17T19:37Z
TLE epoch observation values (Epoch: 2025-09-17T19:37:11.999Z)
Latitude
-0.00009°
Longitude
-84.71738°
Altitude
869.518 km
Speed
7.46 km/s
True Right ascension
13h 46m 16s
True Declination
0° 00' 00"
Sunlit
Object was in daylight at epoch
Visualization orbit readout
Latitude
Unknown
Longitude
Unknown
Altitude
Unknown
Speed
Unknown
Apparent Right ascension
Unknown
Apparent Declination
Unknown
Sunlit
N/A
Visualization observer readout
Local Sidereal Time
07:32:49
Azimuth
Unknown
Elevation
Unknown
Doppler factor
Unknown
Orbital elements
Apogee altitude
1,053.663 km
Perigee altitude
841.435 km
Semi-major axis
7,325.686 km
Eccentricity
0.01449
Inclination
99.0817°
RAAN
206.5706°
Arg. of periapsis
38.6356°
True anomaly
321.4807°
Mean anomaly
322.5057°
Eccentric anomaly
321.99468°
Mean motion
3.46155 °/min
Orbital period
104 mins
BSTAR
0.00048399
Loading maneuver chart data...
Computing Atmospheric mass density...
Loading historical data...
Loading historical data...
Loading historical data...
Loading historical data...
Loading historical data...
Loading historical data...
Loading historical data...

Documentation

Showing up to 5 results
|